Tracking 19827 objects as of 22-Aug-2019
HD Live streaming from Space Station
objects crossing your sky now

COSMOS 2251 DEB

Track COSMOS 2251 DEB now!
10-day predictions


NORAD ID: 34021
Int'l Code: 1993-036HG
Perigee: 739.5 km
Apogee: 770.7 km
Inclination: 74.0 °
Period: 99.8 minutes
Semi major axis: 7126 km
RCS: 0.026 m2 (small)
Launch date: June 16, 1993
Source: Commonwealth of Independent States (former USSR) (CIS)
Launch site: PLESETSK MISSILE AND SPACE COMPLEX (PKMTR)

Note: This is SATELLITE DEBRIS
aabbcc
Your satellite tracking list
Your tracking list is empty




NASA's NSSDC Master Catalog

Two Line Element Set (TLE):
1 34021U 93036HG  19233.78331588  .00000083  00000-0  32485-4 0  9999
2 34021  74.0402 103.1105 0021913  96.8459  26.4192 14.43204889553603
Source of the keplerian elements: AFSPC